Погода в Советском

Россия / Новосибирская область     54°01′45″N   77°01′57″E
темп.,
°C
ветер,
м/с
пор.,
м/с
влажн.,
%
обл.,
%
осадки,
мм/ч
давл.,
гПа
погр.,
м
16 апреля, пт
пт1601:00+4зюз479821 0.0 1021109
04:00+3зюз47955 0.0 1019100
07:00+3зюз47925 0.0 1019104
10:00+7зюз511865 0.0 1018250
13:00+13зюз711735 0.0 1016587
16:00+16з811635 0.0 1015893
19:00+14сз697031 0.0 1015911
22:00+4ссв81386100 0.0 1020580
17 апреля, сб
сб1701:00+3ссв6128583 0.1 1021674
04:00+1ссв6986100 0.0 1022590
07:000св6779100 0.0 1024702
10:00+1св4475100 0.0 1025744
13:00+3с33595 0.0 10241060
16:00+5ссз44485 0.0 10241326
19:00+5сз34465 0.0 10231347
22:00+3ссз11605 0.0 102310
18 апреля, вс
вс1801:00+2юз2262100 0.0 102211
04:00+1ююз3668100 0.0 102099
07:00+1ююз4874100 0.0 1018177
10:00+4юз51062100 0.0 1016446
13:00+6юз81077100 0.1 1013977
16:00+10зюз81154100 0.2 10091791
19:00+9з81665100 0.4 10071722
22:00+4зсз111491100 0.3 1009996
19 апреля, пн
пн1901:00−1зсз11157418 0.3 10111012
04:00−4сз101470100 0.0 10151212
07:00−5сз9126599 0.1 10191057
10:00−4ссз91054100 0.0 10221120
13:00−1ссз784399 0.0 10241494
16:000ссз773898 0.0 10251867
19:00−1с6639100 0.0 10261745
22:00−3с565496 0.0 10281106
20 апреля, вт
вт2001:00−4с465918 0.0 1028971
04:00−5с56585 0.0 10281067
07:00−5с5764100 0.1 1029908
10:00−3с6645100 0.1 10301746
13:00−2с6637100 0.1 10302203
16:00−1с6732100 0.0 10302329
19:00−1с6835100 0.0 10301975
22:00−4ссв36515 0.0 1032156